Weather Roundup
Issued by NWS Springfield, MO

Home | Current Version | Previous Version | Text Only | Print | Product List | Glossary On
Versions: 1 2 3 4 5 6 7 8 9 10 11 12 13 14 15 16 17 18 19 20 21 22 23 24 25 26 27 28 29 30 31 32 33 34 35 36 37 38 39 40 41 42 43 44 45 46 47 48 49 50
000
NZUS99 KSGF 280007
HRRSGF

HOURLY WEATHER
NATIONAL WEATHER SERVICE SPRINGFIELD MO
700 PM CDT WED MAY 27 2015

......SGF CWA......

CITY           SKY/WX    TMP DP  RH WIND       PRES   REMARKS
SPRINGFIELD    MOSUNNY   81  63  54 N5        30.06F
6HR MIN TEMP:  78; 6HR MAX TEMP:  85;

JOPLIN         MOSUNNY   81  67  62 CALM      30.05S
6HR MIN TEMP:  78; 6HR MAX TEMP:  85;

WEST PLAINS    PTSUNNY   76  67  73 CALM      30.08S THUNDER
6HR MIN TEMP:  75; 6HR MAX TEMP:  83;

ROLLA          SUNNY     78  58  49 N6        30.07F
6HR MIN TEMP:  76; 6HR MAX TEMP:  80;

OSAGE BEACH    SUNNY     79  57  47 N3        30.07F
BRANSON        MOSUNNY   77  66  69 S10       30.08F

......SURROUNDING SGF CWA......

CITY           SKY/WX    TMP DP  RH WIND       PRES   REMARKS
CHANUTE        MOSUNNY   81  64  56 E7        30.03S
PARSONS        SUNNY     82  67  60 SE3       30.03F
COFFEYVILLE    SUNNY     82  67  60 SE7       30.01F
EMPORIA        PTSUNNY   77  62  59 E7        30.04S
GROVE OK       PTSUNNY   82  68  61 CALM      30.04R
ROGERS AR      CLOUDY    81  64  56 E3        30.06F
SILOAM SPRINGS MOSUNNY   81  63  54 MISG        N/A
HARRISON AR    PTSUNNY   72  68  87 S5        30.08S
NEAR YELLVILLE   N/A     79  68  69 SW5       30.04S

......KANSAS AND MISSOURI......

CITY           SKY/WX    TMP DP  RH WIND       PRES   REMARKS
KANSAS CTY INT MOSUNNY   79  52  38 SE6       30.06S
DOWNTOWN KC    MOSUNNY   81  53  37 S5        30.05S
COLUMBIA       MOSUNNY   81  56  42 N6        30.07F
SEDALIA        MOSUNNY   81  55  40 E5        30.08F
ST JOSEPH      PTSUNNY   79  55  43 S7        30.05S
ST LOUIS       MOSUNNY   79  58  48 N8        30.07R
SPIRIT OF STL  MOSUNNY   80  59  48 N7        30.06R
KIRKSVILLE     MOSUNNY   78  59  51 N3        30.09S
WICHITA        PTSUNNY   80  63  55 SE8       30.00F
TOPEKA         SUNNY     77  55  46 SE9       30.05S
OLATHE         SUNNY     78  55  44 SE6       30.06F

......TENNESSEE......

CITY           SKY/WX    TMP DP  RH WIND       PRES   REMARKS
MEMPHIS        CLOUDY    76  65  68 SE7       30.09F
NASHVILLE      CLOUDY    72  68  87 CALM      30.14F

......ARKANSAS.......

CITY           SKY/WX    TMP DP  RH WIND       PRES   REMARKS
FAYETTEVILLE   MOSUNNY   79  63  57 S9        30.05F
FT SMITH       CLOUDY    82  64  54 NW3       30.02S
LITTLE ROCK    MOSUNNY   81  67  62 SE8       30.05S

......OKLAHOMA.......

CITY           SKY/WX    TMP DP  RH WIND       PRES   REMARKS
TULSA          PTSUNNY   82  66  58 S12       29.99S
PONCA CITY     CLOUDY    81  68  64 VRB7      29.98F
MCALESTER      CLOUDY    78  69  73 CALM      30.03S
OKLAHOMA CITY  PTSUNNY   76  65  68 S10       30.01S

......IOWA............

CITY           SKY/WX    TMP DP  RH WIND       PRES   REMARKS
DES MOINES     MOSUNNY   80  54  40 SW8       30.03F
QUAD CITIES    SUNNY     77  56  48 W7        30.06R

......ILLINOIS........

CITY           SKY/WX    TMP DP  RH WIND       PRES   REMARKS
QUINCY         SUNNY     76  56  49 N5        30.07F
CHICAGO        SUNNY     72  56  57 W5        30.04R



USA.gov is the U.S. government's official web portal to all federal, state and local government web resources and services.